Regional Weather Roundup
Issued by NWS

Home | Current Version | Previous Version | Graphics & Text | Print | Product List | Glossary On
Versions: 1 2 3 4 5 6 7 8 9 10 11 12 13 14 15 16 17 18 19 20 21 22 23 24 25 26 27 28 29 30 31 32 33 34 35 36 37 38 39 40 41 42 43 44 45 46 47 48 49 50
000
ASUS43 KTOP 260508
RWRKS

WEATHER ROUNDUP FOR KANSAS
NATIONAL WEATHER SERVICE GOODLAND KS
1100 PM CST WED NOV 25 2020

NOTE:  "FAIR" INDICATES FEW OR NO CLOUDS BELOW 12,000 FEET WITH NO
SIGNIFICANT WEATHER AND/OR OBSTRUCTIONS TO VISIBILITY.

KSZ001>006-013>018-027>032-041>047-260600-
NORTHWEST KANSAS

CITY           SKY/WX    TMP DP  RH WIND       PRES   REMARKS
GOODLAND       CLEAR     38  24  57 SW10      29.83R WCI  31
HAYS           CLEAR     34  29  82 SW6       29.92S
HILL CITY      CLEAR     38  29  70 SW7       29.90R
RUSSELL        CLEAR     34  28  79 S10       29.91R WCI  26
$$

KSZ061>065-074>080-084>089-260600-
SOUTHWEST KANSAS

CITY           SKY/WX    TMP DP  RH WIND       PRES   REMARKS
DODGE CITY     CLEAR     37  28  70 S17       29.91S WCI  27
ELKHART        CLEAR     36  31  84 SW10      29.86F WCI  28
GARDEN CITY    CLEAR     33  28  81 SE10      29.88S WCI  25
GREAT BEND     CLEAR     31  28  89 S8        29.93F
LIBERAL        CLEAR     33  27  78 SE6       29.89F
PRATT          CLEAR     37  29  75 S10       29.95S WCI  29
$$

KSZ066>073-081>083-090>101-260600-
SOUTHEAST KANSAS

CITY           SKY/WX    TMP DP  RH WIND       PRES   REMARKS
CHANUTE        CLEAR     31  30  96 SE6       30.03R
COFFEYVILLE    CLEAR     33  31  92 S3        30.04S
HUTCHINSON     CLEAR     33  26  75 SE5       29.96F
MEDICINE LODGE   N/A     36  28  73 SE5       29.96F
NEWTON         CLEAR     34  29  82 S7        29.98F
WICHITA INTL   CLEAR     33  27  78 SE7       29.98S
WICHITA JABRA  CLEAR     33  27  78 S5        29.99S
WICHITA MCCONL CLEAR     36  26  68 SE6       29.98F
WINFIELD       CLEAR     35  30  82 E5        30.01F
$$

KSZ007>012-019>026-033>040-048>060-102>105-260600-
NORTHEAST KANSAS

CITY           SKY/WX    TMP DP  RH WIND       PRES   REMARKS
CONCORDIA      CLEAR     36  29  75 S9        29.93S
EMPORIA        CLEAR     29  27  92 S8        30.00R
LAWRENCE       CLEAR     30  30 100 SE5       30.02R
MANHATTAN      CLEAR     26  23  88 CALM      29.99R FOG
MARYSVILLE     CLEAR     32  30  93 S7        29.96F
OLATHE IND     CLEAR     31  28  89 CALM      30.02R
OLATHE EXE     CLEAR     34  32  92 CALM      30.02R
SALINA         CLEAR     32  29  88 S8        29.96S
TOPEKA BILLARD FOG       29  26  89 CALM      30.01R VSB 3/4
TOPEKA FORBES  CLEAR     29  28  96 S3        30.00R FOG
$$



USA.gov is the U.S. government's official web portal to all federal, state and local government web resources and services.